| time (UTC) | temp C | wind direction | speed KPH | gust KPH | rain 1hr cm | rain 24hr cm | rain mn cm | humidity % | barometer mb |
| 20260505031604 | 0 | 0 | 0.0 | 0.0 | 0.03 | 0.20 | 0.20 | 91 | 1016.6 |
| 20260505030053 | 0 | 0 | 0.0 | 1.6 | 0.00 | 0.18 | 0.18 | 91 | 1016.6 |
| 20260505024605 | 0 | 0 | 0.0 | 0.0 | 0.00 | 0.18 | 0.18 | 90 | 1016.5 |
| 20260505023051 | 0 | 0 | 0.0 | 0.0 | 0.08 | 0.18 | 0.18 | 89 | 1016.4 |
| 20260505021555 | 0 | 0 | 0.0 | 1.6 | 0.10 | 0.18 | 0.18 | 89 | 1016.5 |
| 20260505020053 | 0 | 0 | 0.0 | 0.0 | 0.10 | 0.18 | 0.18 | 87 | 1016.8 |
| 20260505014608 | 1 | 0 | 0.0 | 1.6 | 0.10 | 0.18 | 0.18 | 86 | 1016.7 |
| 20260505013054 | 2 | 0 | 0.0 | 0.0 | 0.03 | 0.10 | 0.10 | 84 | 1016.5 |
| 20260505011602 | 2 | 0 | 0.0 | 4.8 | 0.00 | 0.08 | 0.08 | 84 | 1016.2 |
| 20260505010052 | 3 | 80 | 1.6 | 6.4 | 0.00 | 0.08 | 0.08 | 81 | 1016.1 |
| 20260505004555 | 3 | 85 | 1.6 | 3.2 | 0.00 | 0.08 | 0.08 | 78 | 1016.2 |
| 20260505003108 | 4 | 101 | 0.0 | 12.9 | 0.00 | 0.08 | 0.08 | 76 | 1016.3 |
| 20260505001558 | 5 | 43 | 0.0 | 3.2 | 0.03 | 0.08 | 0.08 | 66 | 1015.8 |
| 20260505000115 | 6 | 242 | 0.0 | 4.8 | 0.03 | 0.08 | 0.08 | 64 | 1016.0 |
| 20260504234554 | 6 | 215 | 1.6 | 4.8 | 0.08 | 0.08 | 0.08 | 66 | 1016.1 |
| 20260504233107 | 5 | 122 | 3.2 | 8.0 | 0.08 | 0.08 | 0.08 | 70 | 1016.3 |
| 20260504231558 | 6 | 133 | 4.8 | 11.3 | 0.05 | 0.05 | 0.05 | 65 | 1016.0 |
| 20260504230056 | 6 | 120 | 3.2 | 14.5 | 0.05 | 0.05 | 0.05 | 62 | 1015.7 |
| 20260504224601 | 5 | 118 | 0.0 | 3.2 | 0.00 | 0.00 | 0.00 | 76 | 1015.8 |
| 20260504223110 | 4 | 91 | 0.0 | 1.6 | 0.00 | 0.00 | 0.00 | 78 | 1015.8 |
| 20260504221550 | 3 | 0 | 0.0 | 1.6 | 0.00 | 0.00 | 0.00 | 78 | 1016.4 |
| 20260504220054 | 4 | 0 | 0.0 | 6.4 | 0.00 | 0.00 | 0.00 | 71 | 1016.3 |
| 20260504214551 | 6 | 0 | 1.6 | 11.3 | 0.00 | 0.00 | 0.00 | 56 | 1015.8 |
| 20260504213102 | 7 | 46 | 6.4 | 16.1 | 0.00 | 0.00 | 0.00 | 51 | 1015.6 |
| 20260504211553 | 8 | 148 | 8.0 | 16.1 | 0.00 | 0.00 | 0.00 | 45 | 1015.8 |
| 20260504210057 | 10 | 311 | 0.0 | 6.4 | 0.00 | 0.00 | 0.00 | 43 | 1015.8 |
| 20260504204554 | 10 | 124 | 1.6 | 17.7 | 0.00 | 0.00 | 0.00 | 37 | 1015.9 |
| 20260504203106 | 8 | 104 | 1.6 | 9.7 | 0.00 | 0.00 | 0.00 | 38 | 1016.0 |
| 20260504201557 | 7 | 205 | 1.6 | 12.9 | 0.00 | 0.00 | 0.00 | 52 | 1016.2 |
| 20260504194552 | 9 | 240 | 1.6 | 22.5 | 0.00 | 0.00 | 0.00 | 44 | 1016.5 |
| 20260504193054 | 11 | 174 | 8.0 | 22.5 | 0.00 | 0.00 | 0.00 | 38 | 1016.5 |
| 20260504191557 | 11 | 219 | 8.0 | 24.1 | 0.00 | 0.00 | 0.00 | 37 | 1016.5 |
| 20260504190053 | 10 | 255 | 4.8 | 24.1 | 0.00 | 0.00 | 0.00 | 39 | 1016.4 |
| 20260504184558 | 10 | 192 | 8.0 | 17.7 | 0.00 | 0.00 | 0.00 | 39 | 1016.8 |
| 20260504183053 | 10 | 25 | 3.2 | 11.3 | 0.00 | 0.00 | 0.00 | 41 | 1016.8 |
| 20260504181549 | 8 | 124 | 3.2 | 11.3 | 0.00 | 0.00 | 0.00 | 46 | 1017.0 |
| 20260504180051 | 7 | 224 | 1.6 | 11.3 | 0.00 | 0.00 | 0.00 | 50 | 1017.4 |
| 20260504174554 | 7 | 115 | 1.6 | 16.1 | 0.00 | 0.00 | 0.00 | 50 | 1017.5 |
| 20260504173050 | 6 | 131 | 1.6 | 20.9 | 0.00 | 0.00 | 0.00 | 50 | 1017.4 |
| 20260504171554 | 6 | 288 | 4.8 | 16.1 | 0.00 | 0.00 | 0.00 | 50 | 1017.1 |
| 20260504081553 | 3 | 268 | 1.6 | 4.8 | 0.00 | 0.00 | 0.00 | 38 | 1018.5 |
| 20260504044603 | 4 | 283 | 0.0 | 4.8 | 0.00 | 0.00 | 0.00 | 41 | 1020.2 |
| 20260504043055 | 4 | 281 | 0.0 | 6.4 | 0.00 | 0.00 | 0.00 | 42 | 1020.2 |
| 20260504041554 | 3 | 269 | 0.0 | 3.2 | 0.00 | 0.00 | 0.00 | 43 | 1020.2 |
| 20260504040107 | 4 | 280 | 0.0 | 1.6 | 0.00 | 0.00 | 0.00 | 43 | 1020.3 |
| 20260504034615 | 4 | 284 | 0.0 | 3.2 | 0.00 | 0.00 | 0.00 | 44 | 1020.3 |
| 20260504033055 | 5 | 280 | 0.0 | 3.2 | 0.00 | 0.00 | 0.00 | 44 | 1020.2 |